Location: Gorrie
(43.8742°N, 81.1087°W)
Time: 00:49:50
(UTC+00:00)

Cosmos 158 Rocket - Pass Details

Date: 09 December 2025
Orbit: 695 x 785 km, 74.0° (Epoch: 17 January)

Event Time Altitude Azimuth Distance (km) Brightness Sun altitude
Rises 11:23:21 0° 194° (SSW) 3,258 7.3 -14.5°
Reaches altitude 10° 11:25:45 10° 193° (SSW) 2,330 6.6 -14.1°
Maximum altitude 11:31:02 76° 109° (ESE) 802 4.2 -13.2°
Drops below altitude 10° 11:36:17 10° 24° (NNE) 2,307 6.5 -12.3°
Sets 11:38:39 0° 23° (NNE) 3,224 7.3 -11.9°
